Location: Armagh
(54.3500°N, 6.6670°W)
Time: 01:47:31
(UTC+00:00)

ISS - Visible Passes

Search period start: 26 February 2018 00:00
Search period end: 08 March 2018 00:00
Orbit: 403 x 406 km, 51.6° (Epoch: 26 February)

Date Brightness Start Highest point End Pass type
(mag) Time Alt. Az. Time Alt. Az. Time Alt. Az.
01 Mar -1.0 05:59:04 10° S 06:00:56 14° SE 06:02:48 10° ESE visible
03 Mar -1.8 05:49:52 10° SSW 05:52:32 23° SSE 05:55:11 10° E visible
04 Mar -1.5 04:59:34 15° SSE 05:00:26 16° SSE 05:02:36 10° ESE visible
05 Mar -0.7 04:09:24 10° ESE 04:09:24 10° ESE 04:09:25 10° ESE visible
05 Mar -2.5 05:42:03 16° SW 05:44:10 33° SSE 05:47:10 10° E visible
06 Mar -2.2 04:51:48 25° SSE 04:51:59 25° SSE 04:54:46 10° E visible
06 Mar -3.2 06:24:53 10° WSW 06:28:05 51° S 06:31:17 10° E visible
07 Mar -0.9 04:01:29 14° ESE 04:01:29 14° ESE 04:02:13 10° ESE visible
07 Mar -3.1 05:34:08 23° SW 05:35:49 44° SSE 05:38:58 10° E visible
